カタログに戻る

CZ-6A DEB

運用中PO
NORAD 60974·DEBRIS·🇨🇳 China

打ち上げ Aug 6, 2024 から Taiyuan Satellite Launch Center

Loading…

次のパス (今後24時間)

TLE

最新Source: Space-Track

元期: Sep 14, 2026, 08:49 UTC

1 60974U 24140LZ  26257.36746166  .00001072  00000-0  30472-3 0  9997
2 60974  88.7366 236.7979 0072359  41.5411 319.1258 14.43109212109153

AllMySatでCZ-6A DEBをリアルタイム追跡

Download on the App Store